User: anonymous   Login
Location: Oshawa
(43.9000°N, 78.8670°W)
Time: 00:37:50
(UTC-04:00)
Language:

Cosmos 1821 Rocket - Orbit

View from above orbital plane
View from above orbital plane
View from above satellite
View from above satellite

Ground track
Ground track

The orbit data is extracted from the following two-line orbital elements,

1 17526U 87017B   18111.60682997 +.00000078 +00000-0 +63220-4 0  9995
2 17526 082.9034 169.7591 0040681 172.8853 187.2890 13.76836377548531
Epoch (UTC): 21 April 2018 14:33:50
Eccentricity: 0.0040681
inclination: 82.9034°
perigee height: 945 km
apogee height: 1005 km
right ascension of ascending node: 169.7591°
argument of perigee: 172.8853°
revolutions per day: 13.76836377
mean anomaly at epoch: 187.2890°
orbit number at epoch: 54853

The dashed part of the orbit path shows where the satellite is in the earth's shadow,  

DLR